Regional Weather Roundup
Issued by NWS

Home | Current Version | Previous Version | Graphics & Text | Print | Product List | Glossary On
Versions: 1 2 3 4 5 6 7 8 9 10 11 12 13 14 15 16 17 18 19 20 21 22 23 24 25 26 27 28 29 30 31 32 33 34 35 36 37 38 39 40 41 42 43 44 45 46 47 48 49 50
000
ASUS43 KMKX 290021
RWRWI

WISCONSIN REGIONAL WEATHER ROUNDUP
NATIONAL WEATHER SERVICE MILWAUKEE/SULLIVAN WI
700 PM CDT TUE MAR 28 2017

NOTE: "FAIR" INDICATES FEW OR NO CLOUDS BELOW 12,000 FEET WITH NO
SIGNIFICANT WEATHER AND/OR OBSTRUCTIONS TO VISIBILITY.

WIZ001-002-006>008-014>016-023>028-290100-
NORTHWEST WISCONSIN

CITY           SKY/WX    TMP DP  RH WIND       PRES   REMARKS
SUPERIOR ARPT  CLEAR     38  33  81 NE13      30.18R WCI  30
6HR MIN TEMP:  38; 6HR MAX TEMP:  62;

ASHLAND        CLEAR     35  31  85 N9        30.18R WCI  28
6HR MIN TEMP:  35; 6HR MAX TEMP:  62;

HAYWARD        CLEAR     59  18  20 N5        30.14R
6HR MIN TEMP:  57; 6HR MAX TEMP:  63;

SIREN          CLEAR     60  14  16 CALM      30.14R
CUMBERLAND     CLEAR     54  34  47 S5        30.15R
RICE LAKE      CLEAR     58  24  26 CALM      30.16R
6HR MIN TEMP:  54; 6HR MAX TEMP:  61;

CHETEK         CLEAR     55  27  34 CALM      30.15R
6HR MIN TEMP:  53; 6HR MAX TEMP:  61;

LADYSMITH      CLEAR     57  27  31 S5        30.16R
6HR MIN TEMP:  55; 6HR MAX TEMP:  61;

EAU CLAIRE     PTCLDY    58  23  26 E7        30.14R
6HR MIN TEMP:  53; 6HR MAX TEMP:  63;

MENOMONIE      CLOUDY    59  29  32 CALM      30.15R
6HR MIN TEMP:  55; 6HR MAX TEMP:  62;

NEW RICHMOND   CLEAR     58  32  38 NE3       30.15R
6HR MIN TEMP:  56; 6HR MAX TEMP:  62;

OSCEOLA        CLEAR     60  27  28 CALM      30.17R
6HR MIN TEMP:  58; 6HR MAX TEMP:  63;

$$

WIZ003>005-009-010-017-018-290100-
NORTH CENTRAL WISCONSIN

CITY           SKY/WX    TMP DP  RH WIND       PRES   REMARKS
MANITOWISH WTR PTCLDY    50  29  44 NE6       30.16R
6HR MIN TEMP:  50; 6HR MAX TEMP:  58;

ARBOR VITAE    CLEAR     57  24  27 CALM      30.15S
6HR MIN TEMP:  53; 6HR MAX TEMP:  59;

WOODRUFF       CLEAR     57  24  27 CALM      30.15S
6HR MIN TEMP:  53; 6HR MAX TEMP:  59;

RHINELANDER    CLEAR     57  22  25 CALM      30.16R
6HR MIN TEMP:  54; 6HR MAX TEMP:  60;

EAGLE RIVER    PTCLDY    53  24  32 CALM      30.15S
6HR MIN TEMP:  53; 6HR MAX TEMP:  58;

LAND O LAKES   CLEAR     52  28  39 N9        30.18R
6HR MIN TEMP:  52; 6HR MAX TEMP:  59;

PHILLIPS       CLEAR     57  22  26 CALM      30.14R
6HR MIN TEMP:  53; 6HR MAX TEMP:  60;

TOMAHAWK       CLEAR     54  26  33 CALM      30.16R
6HR MIN TEMP:  53; 6HR MAX TEMP:  59;

MEDFORD        CLEAR     52  35  52 S5        30.16R
6HR MIN TEMP:  49; 6HR MAX TEMP:  56;

MERRILL        CLEAR     56  26  30 CALM      30.15S
6HR MIN TEMP:  52; 6HR MAX TEMP:  59;

$$

WIZ029-030-035-036-043>047-290100-
CENTRAL WISCONSIN

CITY           SKY/WX    TMP DP  RH WIND       PRES   REMARKS
WAUSAU         CLEAR     56  27  32 NE3       30.14R
6HR MIN TEMP:  51; 6HR MAX TEMP:  59;

MOSINEE        CLEAR     54  30  40 VRB6      30.16R
MARSHFIELD     CLEAR     54  32  43 NE3       30.15R
6HR MIN TEMP:  48; 6HR MAX TEMP:  57;

STEVENS POINT  CLEAR     53  28  39 SE5       30.17R
6HR MIN TEMP:  51; 6HR MAX TEMP:  57;

WAUPACA        CLEAR     55  30  39 E7        30.19R
6HR MIN TEMP:  55; 6HR MAX TEMP:  60;

WAUTOMA        CLEAR     53  34  48 E6        30.18R
6HR MIN TEMP:  53; 6HR MAX TEMP:  58;

WISC RAPIDS    CLEAR     56  27  32 SE10      30.17R
6HR MIN TEMP:  54; 6HR MAX TEMP:  61;

CAMP DOUGLAS   PTCLDY    57  34  41 E3        30.14R
$$

WIZ011>013-019>022-031-037>040-048>050-290100-
NORTHEAST WISCONSIN

CITY           SKY/WX    TMP DP  RH WIND       PRES   REMARKS
ANTIGO         CLEAR     53  31  43 CALM      30.16R
6HR MIN TEMP:  50; 6HR MAX TEMP:  57;

SHAWANO        CLEAR     51  33  49 SE8       30.19R
6HR MIN TEMP:  51; 6HR MAX TEMP:  58;

OCONTO         CLEAR     43  36  75 CALM      30.20R
6HR MIN TEMP:  39; 6HR MAX TEMP:  47;

STURGEON BAY   CLEAR     38  35  89 CALM      30.18F
6HR MIN TEMP:  37; 6HR MAX TEMP:  47;

GREEN BAY      CLEAR     47  39  74 NE7       30.20R
6HR MIN TEMP:  45; 6HR MAX TEMP:  50;

MANITOWOC      CLEAR     38  36  92 N3        30.21R
6HR MIN TEMP:  38; 6HR MAX TEMP:  42;

APPLETON       PTCLDY    50  25  37 NE8       30.17R
CLINTONVILLE   CLEAR     50  32  50 SE7       30.19R
OSHKOSH        CLEAR     49  35  58 NE9       30.18R
6HR MIN TEMP:  48; 6HR MAX TEMP:  53;

$$

WIZ032>034-041-042-053>061-290100-
SOUTHWEST WISCONSIN

CITY           SKY/WX    TMP DP  RH WIND       PRES   REMARKS
LA CROSSE      CLEAR     59  38  45 NW5       30.13S
6HR MIN TEMP:  54; 6HR MAX TEMP:  62;

SPARTA         CLEAR     57  35  43 E5        30.16R
6HR MIN TEMP:  54; 6HR MAX TEMP:  61; 6HR PCP:  0.01;

VIROQUA        CLEAR     55  35  47 CALM      30.14S
6HR MIN TEMP:  52; 6HR MAX TEMP:  59;

BOSCOBEL       CLEAR     58  37  45 VRB3      30.14S
6HR MIN TEMP:  50; 6HR MAX TEMP:  60;

PRAIRIE DU CHI CLEAR     54  38  54 CALM      30.14R
6HR MIN TEMP:  50; 6HR MAX TEMP:  55;

PLATTEVILLE    CLEAR     52  43  72 CALM      30.14S
6HR MIN TEMP:  45; 6HR MAX TEMP:  53;

$$

WIZ056-057-062-063-064-067-068-290100-
SOUTH CENTRAL WISCONSIN

CITY           SKY/WX    TMP DP  RH WIND       PRES   REMARKS
REEDSBURG      CLEAR     55  33  43 E5        30.15R
6HR MIN TEMP:  51; 6HR MAX TEMP:  58;

BARABOO/DELLS  CLEAR     54  34  46 E5        30.16R
6HR MIN TEMP:  49; 6HR MAX TEMP:  58;

LONE ROCK      CLEAR     55  38  52 E6        30.14S
6HR MIN TEMP:  51; 6HR MAX TEMP:  60;

MINERAL POINT  CLEAR     55  36  47 E5        30.14S
MADISON        PTCLDY    52  36  54 NE8       30.15R
6HR MIN TEMP:  50; 6HR MAX TEMP:  57;

MIDDLETON      CLEAR     54  39  55 E8        30.16R
6HR MIN TEMP:  51; 6HR MAX TEMP:  58;

WATERTOWN      CLEAR     49  42  74 E6        30.16R
6HR MIN TEMP:  49; 6HR MAX TEMP:  57;

MONROE         CLEAR     52  37  58 NE9       30.14R
JANESVILLE     MOCLDY    54  37  54 E12G17    30.14R
$$

WIZ051-052-058>065-066-070>072-290100-
SOUTHEAST WISCONSIN

CITY           SKY/WX    TMP DP  RH WIND       PRES   REMARKS
MILWAUKEE      FOG       35  33  92 N8        30.19S VSB 1/4 WCI  29
6HR MIN TEMP:  35; 6HR MAX TEMP:  43;

WAUKESHA       CLEAR     39  34  81 NE6       30.18R WCI  35
MILWAUKEE/TIMM CLOUDY    36  32  87 NE6       30.20R WCI  31
RACINE         FOG       35  33  92 N9        30.20S VSB 1/2 WCI  28
6HR MIN TEMP:  35; 6HR MAX TEMP:  42;

KENOSHA        CLEAR     38  34  85 N6        30.18R WCI  33
6HR MIN TEMP:  38; 6HR MAX TEMP:  48;

FOND DU LAC    CLEAR     50  36  58 N8        30.18R
6HR MIN TEMP:  48; 6HR MAX TEMP:  54;

SHEBOYGAN      FOG       35  34  96 NE7       30.20R VSB 1/4 WCI  29
6HR MIN TEMP:  35; 6HR MAX TEMP:  42;

WEST BEND      CLEAR     41  37  87 E5        30.19R
JUNEAU         CLEAR     51  39  63 N3        30.18R
6HR MIN TEMP:  50; 6HR MAX TEMP:  54;

$$

LSZ147-162-290100-
LAKE SUPERIOR

STATION/POSITION TIME  TEMP    WIND        PRES    WAVE
                       AIR SEA DIR/SP/G            HT/PER
                 (UTC) (F)     (DEG/KT/KT) (MB)    (FT/S)
DEVILS ISLAND    0000   36      80/ 12/ 12 1023.4R
PORT WING        2330           30/ 16/ 17 1021.3S
SAXON HARBOR     2340   40      CALM  /  5 1022.0R
$$

LMZ867-665-643>646-290100-
LAKE MICHIGAN

STATION/POSITION TIME  TEMP    WIND        PRES    WAVE
                       AIR SEA DIR/SP/G            HT/PER
                 (UTC) (F)     (DEG/KT/KT) (MB)    (FT/S)
CHAMBERS ISLAND  2340   37     220/  2/  3 1022.4R
NORTHPORT PIER   2340   34     160/  1/  5 1022.7R
SISTER BAY       2336   38     170/  7/  8   N/A
KEWAUNEE LAKESHO 2354   33      2


USA.gov is the U.S. government's official web portal to all federal, state and local government web resources and services.